Location: Brachstadt
(48.6975°N, 10.6755°E)
Time: 05:44:54
(UTC+00:00)

Cosmos 2278 Rocket - Pass Details

Date: 18 September 2020
Orbit: 841 x 845 km, 71.0° (Epoch: 27 October)

Event Time Altitude Azimuth Distance (km) Brightness Sun altitude
Exits shadow 23:04:03 21° 328° (NNW) 1,836 4.3 -39.9°
Drops below altitude 10° 23:07:43 10° 8° (N) 2,471 5.3 -39.9°
Sets 23:10:49 0° 24° (NNE) 3,410 6.1 -39.9°
